Time,TemperatureF,DewpointF,PressureIn,WindDirection,WindDirectionDegrees,WindSpeedMPH,WindSpeedGustMPH,Humidity,HourlyPrecipIn,Conditions,Clouds,dailyrainin,SoftwareType,DateUTC
2013-08-12 00:30:00,69.6,67.8,30.00,WSW,248,0.0,0.0,94,0.02,,---,0.12,VWS V14.01,2013-08-12 04:30:00,
2013-08-12 04:11:00,66.6,65.7,30.00,NW,317,0.0,0.0,97,0.01,,---,0.00,VWS V14.01,2013-08-12 08:11:00,
2013-08-12 04:12:00,66.6,65.7,30.00,NW,317,0.0,0.0,97,0.01,,---,0.00,VWS V14.01,2013-08-12 08:12:00,
2013-08-12 04:17:00,66.6,65.7,30.00,NW,317,0.0,0.0,97,0.01,,---,0.00,VWS V14.01,2013-08-12 08:17:00,
2013-08-12 04:20:00,66.5,65.6,30.00,NW,317,0.0,0.0,97,0.01,,---,0.00,VWS V14.01,2013-08-12 08:20:00,
2013-08-12 04:22:00,66.5,65.6,30.00,NW,318,0.0,0.0,97,0.00,,---,0.00,VWS V14.01,2013-08-12 08:22:00,
2013-08-12 04:27:00,66.6,65.7,30.00,NW,317,0.0,0.0,97,0.00,,---,0.00,VWS V14.01,2013-08-12 08:27:00,
2013-08-12 04:30:00,66.7,65.8,30.00,NW,317,0.0,0.0,97,0.00,,---,0.00,VWS V14.01,2013-08-12 08:30:00,
2013-08-12 04:32:00,66.8,65.9,30.00,NW,318,0.0,0.0,97,0.00,,---,0.00,VWS V14.01,2013-08-12 08:32:00,
2013-08-12 04:37:00,66.8,65.9,30.00,NW,318,0.0,0.0,97,0.00,,---,0.00,VWS V14.01,2013-08-12 08:37:00,
2013-08-12 04:40:00,66.8,65.9,30.00,NW,317,0.0,0.0,97,0.00,,---,0.00,VWS V14.01,2013-08-12 08:40:00,
2013-08-12 04:42:00,66.9,66.0,30.00,NW,317,0.0,0.0,97,0.00,,---,0.00,VWS V14.01,2013-08-12 08:42:00,
2013-08-12 04:47:00,66.9,66.0,30.00,NW,317,0.0,0.0,97,0.00,,---,0.00,VWS V14.01,2013-08-12 08:47:00,
2013-08-12 04:50:00,66.9,66.0,30.00,NW,317,0.0,0.0,97,0.00,,---,0.00,VWS V14.01,2013-08-12 08:50:00,
2013-08-12 04:52:00,66.9,66.0,30.00,NW,304,0.0,0.0,97,0.00,,---,0.00,VWS V14.01,2013-08-12 08:52:00,
2013-08-12 04:57:00,66.9,66.0,30.00,NW,304,0.0,0.0,97,0.00,,---,0.00,VWS V14.01,2013-08-12 08:57:00,
2013-08-12 05:00:00,67.0,66.1,30.00,NW,304,0.0,0.0,97,0.00,,---,0.00,VWS V14.01,2013-08-12 09:00:00,
2013-08-12 05:02:00,66.9,66.0,30.00,West,269,0.0,0.0,97,0.00,,---,0.00,VWS V14.01,2013-08-12 09:02:00,
2013-08-12 05:07:00,66.8,65.9,30.00,SSW,213,0.0,0.0,97,0.00,,---,0.00,VWS V14.01,2013-08-12 09:07:00,
2013-08-12 05:10:00,66.8,65.9,30.00,SW,219,0.0,0.0,97,0.00,,---,0.00,VWS V14.01,2013-08-12 09:10:00,
2013-08-12 05:12:00,66.8,65.9,30.00,SW,218,0.0,0.0,97,0.00,,---,0.00,VWS V14.01,2013-08-12 09:12:00,
2013-08-12 05:17:00,66.8,65.9,30.00,SW,218,0.0,0.0,97,0.00,,---,0.00,VWS V14.01,2013-08-12 09:17:00,
2013-08-12 05:20:00,66.8,65.9,30.00,SW,218,0.0,0.0,97,0.00,,---,0.00,VWS V14.01,2013-08-12 09:20:00,
2013-08-12 05:22:00,66.8,65.9,30.00,SSW,213,0.0,0.0,97,0.00,,---,0.00,VWS V14.01,2013-08-12 09:22:00,
2013-08-12 05:27:00,66.8,65.9,30.00,SSW,209,0.0,0.0,97,0.00,,---,0.00,VWS V14.01,2013-08-12 09:27:00,
2013-08-12 05:30:00,66.7,65.8,30.00,SSW,207,0.0,0.0,97,0.00,,---,0.00,VWS V14.01,2013-08-12 09:30:00,
2013-08-12 05:32:00,66.8,65.9,30.00,SW,227,0.0,0.0,97,0.00,,---,0.00,VWS V14.01,2013-08-12 09:32:00,
2013-08-12 05:37:00,66.7,65.8,30.00,SW,230,0.0,0.0,97,0.00,,---,0.00,VWS V14.01,2013-08-12 09:37:00,
2013-08-12 05:40:00,66.7,65.8,30.00,SW,230,0.0,0.0,97,0.00,,---,0.00,VWS V14.01,2013-08-12 09:40:00,
2013-08-12 05:42:00,66.7,65.8,30.00,SW,215,0.0,0.0,97,0.00,,---,0.00,VWS V14.01,2013-08-12 09:42:00,
2013-08-12 05:47:00,66.8,65.9,30.00,SW,215,0.0,0.0,97,0.00,,---,0.00,VWS V14.01,2013-08-12 09:47:00,
2013-08-12 05:50:00,66.8,65.9,30.00,SW,215,0.0,0.0,97,0.00,,---,0.00,VWS V14.01,2013-08-12 09:50:00,
2013-08-12 05:52:00,66.9,66.0,30.00,SW,215,0.0,0.0,97,0.00,,---,0.00,VWS V14.01,2013-08-12 09:52:00,
2013-08-12 05:57:00,66.9,66.0,30.00,SW,218,0.0,0.0,97,0.00,,---,0.00,VWS V14.01,2013-08-12 09:57:00,
2013-08-12 06:00:00,66.9,66.0,30.00,SW,219,0.0,0.0,97,0.00,,---,0.00,VWS V14.01,2013-08-12 10:00:00,
2013-08-12 06:02:00,66.9,66.0,30.00,WSW,240,0.0,0.0,97,0.00,,---,0.00,VWS V14.01,2013-08-12 10:02:00,
2013-08-12 06:08:00,66.9,66.0,30.00,SW,222,0.0,0.0,97,0.00,,---,0.00,VWS V14.01,2013-08-12 10:08:00,
2013-08-12 06:10:00,66.9,66.0,30.00,SSW,205,0.0,0.0,97,0.00,,---,0.00,VWS V14.01,2013-08-12 10:10:00,
2013-08-12 06:13:00,66.9,66.0,30.01,SSW,203,0.0,0.0,97,0.00,,---,0.00,VWS V14.01,2013-08-12 10:13:00,
2013-08-12 06:18:00,66.9,66.0,30.01,SSW,211,0.0,0.0,97,0.00,,---,0.00,VWS V14.01,2013-08-12 10:18:00,
2013-08-12 06:20:00,66.9,66.0,30.01,SW,221,0.0,0.0,97,0.00,,---,0.00,VWS V14.01,2013-08-12 10:20:00,
2013-08-12 06:23:00,66.9,66.0,30.01,SW,233,0.0,2.0,97,0.00,,---,0.00,VWS V14.01,2013-08-12 10:23:00,
2013-08-12 06:28:00,66.9,66.0,30.01,SW,226,0.0,2.0,97,0.00,,---,0.00,VWS V14.01,2013-08-12 10:28:00,
2013-08-12 06:30:00,66.8,65.9,30.01,SW,226,0.0,2.0,97,0.00,,---,0.00,VWS V14.01,2013-08-12 10:30:00,
2013-08-12 06:33:00,66.9,66.0,30.01,WSW,237,0.0,1.0,97,0.00,,---,0.00,VWS V14.01,2013-08-12 10:33:00,
2013-08-12 06:38:00,66.9,66.0,30.01,SW,236,0.0,2.0,97,0.00,,---,0.00,VWS V14.01,2013-08-12 10:38:00,
2013-08-12 06:40:00,66.9,66.0,30.01,SW,220,0.0,2.0,97,0.00,,---,0.00,VWS V14.01,2013-08-12 10:40:00,
2013-08-12 06:43:00,66.9,66.0,30.01,SSW,210,0.0,1.0,97,0.00,,---,0.00,VWS V14.01,2013-08-12 10:43:00,
2013-08-12 06:48:00,66.9,66.0,30.01,WSW,238,0.0,1.0,97,0.00,,---,0.00,VWS V14.01,2013-08-12 10:48:00,
2013-08-12 06:50:00,66.9,66.0,30.01,SSW,202,0.0,2.0,97,0.00,,---,0.00,VWS V14.01,2013-08-12 10:50:00,
2013-08-12 06:53:00,66.9,66.0,30.01,South,190,0.0,2.0,97,0.00,,---,0.00,VWS V14.01,2013-08-12 10:53:00,
2013-08-12 06:58:00,66.9,66.0,30.01,SSW,203,0.0,2.0,97,0.00,,---,0.00,VWS V14.01,2013-08-12 10:58:00,
2013-08-12 07:00:00,66.9,66.0,30.01,SW,226,0.0,2.0,97,0.00,,---,0.00,VWS V14.01,2013-08-12 11:00:00,
2013-08-12 07:03:00,66.9,66.0,30.01,WNW,283,0.0,0.0,97,0.00,,---,0.00,VWS V14.01,2013-08-12 11:03:00,
2013-08-12 07:08:00,67.0,66.1,30.01,WNW,283,0.0,0.0,97,0.00,,---,0.00,VWS V14.01,2013-08-12 11:08:00,
2013-08-12 07:10:00,67.0,66.1,30.01,WNW,283,0.0,0.0,97,0.00,,---,0.00,VWS V14.01,2013-08-12 11:10:00,
2013-08-12 07:13:00,66.9,66.0,30.01,WSW,246,0.0,0.0,97,0.00,,---,0.00,VWS V14.01,2013-08-12 11:13:00,
2013-08-12 07:18:00,67.0,66.1,30.01,SW,230,0.0,0.0,97,0.00,,---,0.00,VWS V14.01,2013-08-12 11:18:00,
2013-08-12 07:20:00,67.0,66.1,30.01,SW,230,0.0,0.0,97,0.00,,---,0.00,VWS V14.01,2013-08-12 11:20:00,
2013-08-12 07:23:00,67.1,66.2,30.01,SW,230,0.0,0.0,97,0.00,,---,0.00,VWS V14.01,2013-08-12 11:23:00,
2013-08-12 07:24:00,67.1,66.2,30.01,SW,230,0.0,0.0,97,0.00,,---,0.00,VWS V14.01,2013-08-12 11:24:00,
2013-08-12 07:29:00,67.1,66.2,30.01,WSW,242,0.0,0.0,97,0.00,,---,0.00,VWS V14.01,2013-08-12 11:29:00,
2013-08-12 07:30:00,67.1,66.2,30.01,WSW,242,0.0,0.0,97,0.00,,---,0.00,VWS V14.01,2013-08-12 11:30:00,
2013-08-12 07:34:00,67.1,66.2,30.01,NNW,327,0.0,1.0,97,0.00,,---,0.00,VWS V14.01,2013-08-12 11:34:00,
2013-08-12 07:39:00,67.1,66.2,30.01,WSW,242,0.0,1.0,97,0.00,,---,0.00,VWS V14.01,2013-08-12 11:39:00,
2013-08-12 07:40:00,67.1,66.2,30.01,WSW,254,0.0,1.0,97,0.00,,---,0.00,VWS V14.01,2013-08-12 11:40:00,
2013-08-12 07:44:00,67.0,66.1,30.01,SW,229,0.0,1.0,97,0.00,,---,0.00,VWS V14.01,2013-08-12 11:44:00,
2013-08-12 07:49:00,67.1,66.2,30.01,WSW,241,0.0,0.0,97,0.00,,---,0.00,VWS V14.01,2013-08-12 11:49:00,
2013-08-12 07:50:00,67.1,66.2,30.01,WSW,240,0.0,1.0,97,0.00,,---,0.00,VWS V14.01,2013-08-12 11:50:00,
2013-08-12 07:54:00,67.2,66.3,30.01,SSW,211,0.0,0.0,97,0.00,,---,0.00,VWS V14.01,2013-08-12 11:54:00,
2013-08-12 07:59:00,67.2,66.3,30.02,SW,215,0.0,0.0,97,0.00,,---,0.00,VWS V14.01,2013-08-12 11:59:00,
2013-08-12 08:00:00,67.2,66.3,30.01,SW,215,0.0,0.0,97,0.00,,---,0.00,VWS V14.01,2013-08-12 12:00:00,
2013-08-12 08:04:00,67.2,66.3,30.01,WSW,250,0.0,1.0,97,0.00,,---,0.00,VWS V14.01,2013-08-12 12:04:00,
2013-08-12 08:09:00,67.2,66.3,30.01,WSW,240,0.0,0.0,97,0.00,,---,0.00,VWS V14.01,2013-08-12 12:09:00,
2013-08-12 08:10:00,67.2,66.3,30.01,WSW,240,0.0,1.0,97,0.00,,---,0.00,VWS V14.01,2013-08-12 12:10:00,
2013-08-12 08:14:00,67.3,66.4,30.01,WSW,240,0.0,1.0,97,0.00,,---,0.00,VWS V14.01,2013-08-12 12:14:00,
2013-08-12 08:19:00,67.4,66.5,30.01,SW,220,0.0,0.0,97,0.00,,---,0.00,VWS V14.01,2013-08-12 12:19:00,
2013-08-12 08:20:00,67.4,66.5,30.01,SW,220,0.0,1.0,97,0.00,,---,0.00,VWS V14.01,2013-08-12 12:20:00,
2013-08-12 08:24:00,67.5,66.6,30.01,WSW,244,0.0,0.0,97,0.00,,---,0.00,VWS V14.01,2013-08-12 12:24:00,
2013-08-12 08:29:00,67.7,66.8,30.01,WSW,250,0.0,0.0,97,0.00,,---,0.00,VWS V14.01,2013-08-12 12:29:00,
2013-08-12 08:30:00,67.7,66.8,30.01,WSW,250,0.0,0.0,97,0.00,,---,0.00,VWS V14.01,2013-08-12 12:30:00,
2013-08-12 08:34:00,67.7,66.8,30.01,South,185,0.0,0.0,97,0.00,,---,0.00,VWS V14.01,2013-08-12 12:34:00,
2013-08-12 08:39:00,67.9,67.0,30.01,SW,214,0.0,0.0,97,0.00,,---,0.00,VWS V14.01,2013-08-12 12:39:00,
2013-08-12 08:40:00,67.8,66.9,30.01,SW,215,0.0,1.0,97,0.00,,---,0.00,VWS V14.01,2013-08-12 12:40:00,
2013-08-12 08:44:00,68.2,67.3,30.01,WSW,248,0.0,2.0,97,0.00,,---,0.00,VWS V14.01,2013-08-12 12:44:00,
2013-08-12 08:49:00,68.4,67.2,30.01,SSW,207,0.0,1.0,96,0.00,,---,0.00,VWS V14.01,2013-08-12 12:49:00,
2013-08-12 08:50:00,68.3,67.1,30.01,SSW,198,1.0,2.0,96,0.00,,---,0.00,VWS V14.01,2013-08-12 12:50:00,
2013-08-12 08:54:00,68.6,67.4,30.01,South,182,0.0,1.0,96,0.00,,---,0.00,VWS V14.01,2013-08-12 12:54:00,
2013-08-12 08:59:00,68.9,67.7,30.01,SW,222,0.0,1.0,96,0.00,,---,0.00,VWS V14.01,2013-08-12 12:59:00,
2013-08-12 09:00:00,68.9,67.7,30.01,SSW,209,0.0,2.0,96,0.00,,---,0.00,VWS V14.01,2013-08-12 13:00:00,
2013-08-12 09:04:00,69.3,67.8,30.01,SW,215,0.0,1.0,95,0.00,,---,0.00,VWS V14.01,2013-08-12 13:04:00,
2013-08-12 09:09:00,69.5,67.7,30.01,SW,215,2.0,3.0,94,0.00,,---,0.00,VWS V14.01,2013-08-12 13:09:00,
2013-08-12 09:10:00,69.5,67.7,30.01,South,190,1.0,4.0,94,0.00,,---,0.00,VWS V14.01,2013-08-12 13:10:00,
2013-08-12 09:14:00,69.6,67.8,30.01,SW,217,1.0,3.0,94,0.00,,---,0.00,VWS V14.01,2013-08-12 13:14:00,
2013-08-12 09:19:00,69.8,67.7,30.01,SW,223,0.0,2.0,93,0.00,,---,0.00,VWS V14.01,2013-08-12 13:19:00,
2013-08-12 09:20:00,69.7,67.6,30.01,WSW,256,2.0,3.0,93,0.00,,---,0.00,VWS V14.01,2013-08-12 13:20:00,
2013-08-12 09:25:00,70.1,68.0,30.01,WSW,248,2.0,4.0,93,0.00,,---,0.00,VWS V14.01,2013-08-12 13:25:00,
2013-08-12 09:30:00,70.3,67.9,30.01,WSW,249,0.0,1.0,92,0.00,,---,0.00,VWS V14.01,2013-08-12 13:30:00,
2013-08-12 09:35:00,71.0,68.6,30.01,West,259,0.0,1.0,92,0.00,,---,0.00,VWS V14.01,2013-08-12 13:35:00,
2013-08-12 09:40:00,71.8,69.0,30.01,WSW,241,1.0,3.0,91,0.00,,---,0.00,VWS V14.01,2013-08-12 13:40:00,
2013-08-12 09:45:00,71.7,68.0,30.01,WSW,254,0.0,3.0,88,0.00,,---,0.00,VWS V14.01,2013-08-12 13:45:00,
2013-08-12 09:50:00,71.8,68.7,30.01,West,272,0.0,0.0,90,0.00,,---,0.00,VWS V14.01,2013-08-12 13:50:00,
2013-08-12 09:55:00,71.9,68.5,30.01,WSW,238,0.0,1.0,89,0.00,,---,0.00,VWS V14.01,2013-08-12 13:55:00,
2013-08-12 10:00:00,71.7,68.0,30.01,WSW,246,0.0,2.0,88,0.00,,---,0.00,VWS V14.01,2013-08-12 14:00:00,
2013-08-12 10:05:00,71.8,68.1,30.01,SW,230,0.0,2.0,88,0.00,,---,0.00,VWS V14.01,2013-08-12 14:05:00,
2013-08-12 10:10:00,72.0,67.9,30.01,SSW,212,0.0,0.0,87,0.00,,---,0.00,VWS V14.01,2013-08-12 14:10:00,
2013-08-12 10:15:00,72.3,68.2,30.01,SW,225,0.0,1.0,87,0.00,,---,0.00,VWS V14.01,2013-08-12 14:15:00,
2013-08-12 10:20:00,73.0,68.2,30.00,West,260,0.0,0.0,85,0.00,,---,0.00,VWS V14.01,2013-08-12 14:20:00,
2013-08-12 10:25:00,73.7,68.9,30.01,SSW,200,0.0,1.0,85,0.00,,---,0.00,VWS V14.01,2013-08-12 14:25:00,
2013-08-12 10:30:00,73.9,68.4,30.01,WSW,253,1.0,3.0,83,0.00,,---,0.00,VWS V14.01,2013-08-12 14:30:00,
2013-08-12 10:35:00,73.6,68.1,30.01,SW,234,0.0,3.0,83,0.00,,---,0.00,VWS V14.01,2013-08-12 14:35:00,
2013-08-12 10:40:00,73.9,68.8,30.01,WSW,238,1.0,1.0,84,0.00,,---,0.00,VWS V14.01,2013-08-12 14:40:00,
2013-08-12 10:45:00,74.3,68.8,30.01,WSW,244,1.0,2.0,83,0.00,,---,0.00,VWS V14.01,2013-08-12 14:45:00,
2013-08-12 10:50:00,73.9,68.4,30.01,WSW,253,0.0,1.0,83,0.00,,---,0.00,VWS V14.01,2013-08-12 14:50:00,
2013-08-12 10:55:00,74.4,69.6,30.01,WSW,240,0.0,2.0,85,0.00,,---,0.00,VWS V14.01,2013-08-12 14:55:00,
2013-08-12 11:00:00,74.2,68.4,30.01,WSW,250,0.0,1.0,82,0.00,,---,0.00,VWS V14.01,2013-08-12 15:00:00,
2013-08-12 11:05:00,74.4,68.9,30.01,South,182,0.0,3.0,83,0.00,,---,0.00,VWS V14.01,2013-08-12 15:05:00,
2013-08-12 11:10:00,74.9,68.7,30.01,SW,219,1.0,2.0,81,0.00,,---,0.00,VWS V14.01,2013-08-12 15:10:00,
2013-08-12 11:15:00,75.8,69.9,30.01,SSW,194,3.0,5.0,82,0.00,,---,0.00,VWS V14.01,2013-08-12 15:15:00,
2013-08-12 11:20:00,75.9,68.2,30.00,SW,233,0.0,4.0,77,0.00,,---,0.00,VWS V14.01,2013-08-12 15:20:00,
2013-08-12 11:25:00,76.4,69.4,30.01,NNE,13,2.0,4.0,79,0.00,,---,0.00,VWS V14.01,2013-08-12 15:25:00,
2013-08-12 11:30:00,76.7,69.3,30.00,NNE,31,1.0,2.0,78,0.00,,---,0.00,VWS V14.01,2013-08-12 15:30:00,
2013-08-12 11:35:00,76.7,68.9,30.00,NNE,22,0.0,2.0,77,0.00,,---,0.00,VWS V14.01,2013-08-12 15:35:00,
2013-08-12 11:40:00,76.9,68.8,30.00,WSW,250,2.0,3.0,76,0.00,,---,0.00,VWS V14.01,2013-08-12 15:40:00,
2013-08-12 11:45:00,76.7,68.2,30.00,South,183,4.0,5.0,75,0.00,,---,0.00,VWS V14.01,2013-08-12 15:45:00,
2013-08-12 11:50:00,76.6,68.1,30.00,WSW,254,0.0,3.0,75,0.00,,---,0.00,VWS V14.01,2013-08-12 15:50:00,
2013-08-12 11:55:00,77.6,68.7,30.00,SSE,159,0.0,3.0,74,0.00,,---,0.00,VWS V14.01,2013-08-12 15:55:00,
2013-08-12 12:00:00,77.6,67.9,30.00,SSW,200,1.0,4.0,72,0.00,,---,0.00,VWS V14.01,2013-08-12 16:00:00,
2013-08-12 12:05:00,78.1,67.9,30.00,SSE,161,0.0,4.0,71,0.00,,---,0.00,VWS V14.01,2013-08-12 16:05:00,
2013-08-12 12:10:00,78.2,67.2,30.00,South,187,1.0,5.0,69,0.00,,---,0.00,VWS V14.01,2013-08-12 16:10:00,
2013-08-12 12:15:00,78.5,68.3,30.00,SW,214,0.0,5.0,71,0.00,,---,0.00,VWS V14.01,2013-08-12 16:15:00,
2013-08-12 12:20:00,78.8,68.2,30.00,ENE,74,2.0,3.0,70,0.00,,---,0.00,VWS V14.01,2013-08-12 16:20:00,
2013-08-12 12:25:00,78.5,67.9,29.99,SW,222,0.0,3.0,70,0.00,,---,0.00,VWS V14.01,2013-08-12 16:25:00,
2013-08-12 12:30:00,78.2,67.2,30.00,SSE,163,0.0,4.0,69,0.00,,---,0.00,VWS V14.01,2013-08-12 16:30:00,
2013-08-12 12:35:00,78.8,66.5,30.00,West,281,2.0,4.0,66,0.00,,---,0.00,VWS V14.01,2013-08-12 16:35:00,
2013-08-12 12:40:00,79.1,65.0,30.00,NE,49,0.0,4.0,62,0.00,,---,0.00,VWS V14.01,2013-08-12 16:40:00,
2013-08-12 12:41:00,79.2,66.0,29.99,WNW,290,1.0,1.0,64,0.00,,---,0.00,VWS V14.01,2013-08-12 16:41:00,
2013-08-12 12:46:00,79.8,68.7,30.00,WSW,252,3.0,3.0,69,0.00,,---,0.00,VWS V14.01,2013-08-12 16:46:00,
2013-08-12 12:50:00,79.9,66.6,29.99,SW,227,0.0,4.0,64,0.00,,---,0.00,VWS V14.01,2013-08-12 16:50:00,
2013-08-12 12:51:00,79.9,67.1,29.99,NNE,26,0.0,2.0,65,0.00,,---,0.00,VWS V14.01,2013-08-12 16:51:00,
2013-08-12 12:56:00,80.1,66.4,29.99,East,100,0.0,4.0,63,0.00,,---,0.00,VWS V14.01,2013-08-12 16:56:00,
2013-08-12 13:00:00,80.1,65.0,29.99,NNW,330,2.0,4.0,60,0.00,,---,0.00,VWS V14.01,2013-08-12 17:00:00,
2013-08-12 13:01:00,79.6,65.0,29.99,NNW,344,0.0,2.0,61,0.00,,---,0.00,VWS V14.01,2013-08-12 17:01:00,
2013-08-12 13:06:00,79.6,63.5,29.98,South,176,1.0,7.0,58,0.00,,---,0.00,VWS V14.01,2013-08-12 17:06:00,
2013-08-12 13:10:00,79.8,66.1,29.98,WSW,250,0.0,7.0,63,0.00,,---,0.00,VWS V14.01,2013-08-12 17:10:00,
2013-08-12 13:11:00,80.3,65.6,29.98,WNW,292,1.0,1.0,61,0.00,,---,0.00,VWS V14.01,2013-08-12 17:11:00,
2013-08-12 13:16:00,80.6,65.4,29.98,NNE,32,0.0,5.0,60,0.00,,---,0.00,VWS V14.01,2013-08-12 17:16:00,
2013-08-12 13:20:00,80.8,65.2,29.98,WSW,238,0.0,5.0,59,0.00,,---,0.00,VWS V14.01,2013-08-12 17:20:00,
2013-08-12 13:21:00,81.1,65.4,29.98,WNW,290,0.0,1.0,59,0.00,,---,0.00,VWS V14.01,2013-08-12 17:21:00,
2013-08-12 13:26:00,81.4,64.2,29.98,NNE,22,0.0,2.0,56,0.00,,---,0.00,VWS V14.01,2013-08-12 17:26:00,
2013-08-12 13:30:00,81.1,64.9,29.98,NNE,15,2.0,3.0,58,0.00,,---,0.00,VWS V14.01,2013-08-12 17:30:00,
2013-08-12 13:31:00,80.9,62.7,29.98,WSW,244,1.0,3.0,54,0.00,,---,0.00,VWS V14.01,2013-08-12 17:31:00,
2013-08-12 13:36:00,80.6,64.5,29.98,South,190,2.0,6.0,58,0.00,,---,0.00,VWS V14.01,2013-08-12 17:36:00,
2013-08-12 13:40:00,80.3,63.2,29.98,South,187,4.0,6.0,56,0.00,,---,0.00,VWS V14.01,2013-08-12 17:40:00,
2013-08-12 13:41:00,80.0,64.4,29.98,WSW,248,1.0,6.0,59,0.00,,---,0.00,VWS V14.01,2013-08-12 17:41:00,
2013-08-12 13:46:00,79.9,64.8,29.98,SSW,207,2.0,6.0,60,0.00,,---,0.00,VWS V14.01,2013-08-12 17:46:00,
2013-08-12 13:50:00,80.2,65.1,29.98,West,259,0.0,6.0,60,0.00,,---,0.00,VWS V14.01,2013-08-12 17:50:00,
2013-08-12 13:51:00,80.6,65.9,29.98,ENE,73,0.0,3.0,61,0.00,,---,0.00,VWS V14.01,2013-08-12 17:51:00,
2013-08-12 13:56:00,81.3,66.1,29.98,West,265,2.0,3.0,60,0.00,,---,0.00,VWS V14.01,2013-08-12 17:56:00,
2013-08-12 14:00:00,81.5,65.8,29.98,WSW,242,2.0,3.0,59,0.00,,---,0.00,VWS V14.01,2013-08-12 18:00:00,
2013-08-12 14:01:00,81.7,65.5,29.98,NW,326,1.0,2.0,58,0.00,,---,0.00,VWS V14.01,2013-08-12 18:01:00,
2013-08-12 14:06:00,81.9,64.7,29.97,NNE,18,0.0,6.0,56,0.00,,---,0.00,VWS V14.01,2013-08-12 18:06:00,
2013-08-12 14:10:00,81.8,63.5,29.97,SW,215,3.0,8.0,54,0.00,,---,0.00,VWS V14.01,2013-08-12 18:10:00,
2013-08-12 14:11:00,81.6,63.9,29.97,WSW,257,0.0,4.0,55,0.00,,---,0.00,VWS V14.01,2013-08-12 18:11:00,
2013-08-12 14:16:00,82.0,64.3,29.97,SSW,194,2.0,4.0,55,0.00,,---,0.00,VWS V14.01,2013-08-12 18:16:00,
2013-08-12 14:20:00,81.8,64.1,29.97,SE,142,2.0,6.0,55,0.00,,---,0.00,VWS V14.01,2013-08-12 18:20:00,
2013-08-12 14:21:00,81.7,65.0,29.97,SSW,202,1.0,4.0,57,0.00,,---,0.00,VWS V14.01,2013-08-12 18:21:00,
2013-08-12 14:26:00,81.7,65.5,29.97,South,188,0.0,9.0,58,0.00,,---,0.00,VWS V14.01,2013-08-12 18:26:00,
2013-08-12 14:30:00,82.0,65.3,29.97,SSW,210,1.0,9.0,57,0.00,,---,0.00,VWS V14.01,2013-08-12 18:30:00,
2013-08-12 14:31:00,82.3,67.0,29.97,South,180,0.0,2.0,60,0.00,,---,0.00,VWS V14.01,2013-08-12 18:31:00,
2013-08-12 14:36:00,82.6,65.8,29.97,SSW,213,2.0,4.0,57,0.00,,---,0.00,VWS V14.01,2013-08-12 18:36:00,
2013-08-12 14:40:00,82.2,65.5,29.97,SW,236,0.0,9.0,57,0.00,,---,0.00,VWS V14.01,2013-08-12 18:40:00,
2013-08-12 14:41:00,82.0,66.3,29.96,West,259,4.0,4.0,59,0.00,,---,0.00,VWS V14.01,2013-08-12 18:41:00,
2013-08-12 14:46:00,81.5,64.8,29.96,SW,233,5.0,9.0,57,0.00,,---,0.00,VWS V14.01,2013-08-12 18:46:00,
2013-08-12 14:50:00,81.2,65.0,29.96,SSW,210,5.0,9.0,58,0.00,,---,0.00,VWS V14.01,2013-08-12 18:50:00,
2013-08-12 14:51:00,80.8,64.7,29.96,WSW,240,1.0,5.0,58,0.00,,---,0.00,VWS V14.01,2013-08-12 18:51:00,
2013-08-12 14:56:00,80.5,64.9,29.96,SSW,206,0.0,6.0,59,0.00,,---,0.00,VWS V14.01,2013-08-12 18:56:00,
2013-08-12 15:00:00,80.6,65.4,29.95,SSW,209,2.0,6.0,60,0.00,,---,0.00,VWS V14.01,2013-08-12 19:00:00,
2013-08-12 15:01:00,80.6,65.4,29.95,WSW,240,3.0,7.0,60,0.00,,---,0.00,VWS V14.01,2013-08-12 19:01:00,
2013-08-12 15:06:00,80.2,65.1,29.96,SSW,205,1.0,8.0,60,0.00,,---,0.00,VWS V14.01,2013-08-12 19:06:00,
2013-08-12 15:10:00,80.2,64.1,29.96,SE,144,4.0,8.0,58,0.00,,---,0.00,VWS V14.01,2013-08-12 19:10:00,
2013-08-12 15:11:00,80.2,64.6,29.95,SSW,199,4.0,8.0,59,0.00,,---,0.00,VWS V14.01,2013-08-12 19:11:00,
2013-08-12 15:16:00,80.2,64.6,29.95,South,169,2.0,8.0,59,0.00,,---,0.00,VWS V14.01,2013-08-12 19:16:00,
2013-08-12 15:20:00,80.3,64.7,29.95,South,185,4.0,9.0,59,0.00,,---,0.00,VWS V14.01,2013-08-12 19:20:00,
2013-08-12 15:21:00,80.5,64.9,29.95,SW,217,1.0,6.0,59,0.00,,---,0.00,VWS V14.01,2013-08-12 19:21:00,
2013-08-12 15:26:00,80.6,64.5,29.95,SSW,205,2.0,6.0,58,0.00,,---,0.00,VWS V14.01,2013-08-12 19:26:00,
2013-08-12 15:30:00,80.5,64.4,29.95,WSW,249,0.0,6.0,58,0.00,,---,0.00,VWS V14.01,2013-08-12 19:30:00,
2013-08-12 15:31:00,81.0,65.8,29.94,East,100,0.0,5.0,60,0.00,,---,0.00,VWS V14.01,2013-08-12 19:31:00,
2013-08-12 15:36:00,81.6,65.4,29.94,SSE,159,1.0,7.0,58,0.00,,---,0.00,VWS V14.01,2013-08-12 19:36:00,
2013-08-12 15:40:00,81.7,66.5,29.94,SSE,148,4.0,7.0,60,0.00,,---,0.00,VWS V14.01,2013-08-12 19:40:00,
2013-08-12 15:41:00,81.7,67.4,29.94,South,187,3.0,6.0,62,0.00,,---,0.00,VWS V14.01,2013-08-12 19:41:00,
2013-08-12 15:46:00,81.8,65.6,29.93,South,169,5.0,10.0,58,0.00,,---,0.00,VWS V14.01,2013-08-12 19:46:00,
2013-08-12 15:50:00,81.7,65.0,29.93,SSW,198,3.0,10.0,57,0.00,,---,0.00,VWS V14.01,2013-08-12 19:50:00,
2013-08-12 15:51:00,81.8,67.1,29.93,SW,225,5.0,8.0,61,0.00,,---,0.00,VWS V14.01,2013-08-12 19:51:00,
2013-08-12 15:56:00,81.5,65.3,29.93,SSW,196,2.0,8.0,58,0.00,,---,0.00,VWS V14.01,2013-08-12 19:56:00,
2013-08-12 16:00:00,81.3,66.1,29.93,SSW,199,2.0,8.0,60,0.00,,---,0.00,VWS V14.01,2013-08-12 20:00:00,
2013-08-12 16:01:00,81.2,65.5,29.93,SW,215,0.0,5.0,59,0.00,,---,0.00,VWS V14.01,2013-08-12 20:01:00,
2013-08-12 16:06:00,81.4,64.7,29.93,SSW,213,1.0,6.0,57,0.00,,---,0.00,VWS V14.01,2013-08-12 20:06:00,
2013-08-12 16:10:00,81.3,65.1,29.93,SSW,202,2.0,8.0,58,0.00,,---,0.00,VWS V14.01,2013-08-12 20:10:00,
2013-08-12 16:11:00,81.4,66.2,29.93,SW,236,3.0,3.0,60,0.00,,---,0.00,VWS V14.01,2013-08-12 20:11:00,
2013-08-12 16:17:00,82.0,66.3,29.93,SW,215,1.0,5.0,59,0.00,,---,0.00,VWS V14.01,2013-08-12 20:17:00,
2013-08-12 16:20:00,82.1,65.9,29.93,WSW,241,1.0,5.0,58,0.00,,---,0.00,VWS V14.01,2013-08-12 20:20:00,
2013-08-12 16:22:00,81.7,66.0,29.93,WSW,249,3.0,4.0,59,0.00,,---,0.00,VWS V14.01,2013-08-12 20:22:00,
2013-08-12 16:27:00,81.3,65.6,29.92,SW,234,1.0,4.0,59,0.00,,---,0.00,VWS V14.01,2013-08-12 20:27:00,
2013-08-12 16:30:00,81.3,66.6,29.92,WSW,242,0.0,4.0,61,0.00,,---,0.00,VWS V14.01,2013-08-12 20:30:00,
2013-08-12 16:32:00,81.4,66.2,29.92,SW,233,0.0,2.0,60,0.00,,---,0.00,VWS V14.01,2013-08-12 20:32:00,
2013-08-12 16:37:00,81.8,67.1,29.92,ESE,103,0.0,2.0,61,0.00,,---,0.00,VWS V14.01,2013-08-12 20:37:00,
2013-08-12 16:40:00,82.1,67.3,29.92,South,180,0.0,2.0,61,0.00,,---,0.00,VWS V14.01,2013-08-12 20:40:00,
2013-08-12 16:42:00,82.2,65.5,29.92,WSW,239,5.0,6.0,57,0.00,,---,0.00,VWS V14.01,2013-08-12 20:42:00,
2013-08-12 16:47:00,81.6,65.4,29.92,SSW,209,3.0,7.0,58,0.00,,---,0.00,VWS V14.01,2013-08-12 20:47:00,
2013-08-12 16:50:00,81.4,65.7,29.92,SSW,209,2.0,7.0,59,0.00,,---,0.00,VWS V14.01,2013-08-12 20:50:00,
2013-08-12 16:52:00,81.3,65.6,29.92,SSW,199,1.0,5.0,59,0.00,,---,0.00,VWS V14.01,2013-08-12 20:52:00,
2013-08-12 16:57:00,81.9,66.7,29.92,SW,219,0.0,5.0,60,0.00,,---,0.00,VWS V14.01,2013-08-12 20:57:00,
2013-08-12 17:00:00,81.9,66.7,29.92,WSW,257,1.0,5.0,60,0.00,,---,0.00,VWS V14.01,2013-08-12 21:00:00,
2013-08-12 17:02:00,81.9,65.7,29.92,South,185,1.0,4.0,58,0.00,,---,0.00,VWS V14.01,2013-08-12 21:02:00,
2013-08-12 17:07:00,82.0,66.3,29.92,WSW,242,0.0,4.0,59,0.00,,---,0.00,VWS V14.01,2013-08-12 21:07:00,
2013-08-12 17:10:00,82.1,66.8,29.92,WSW,246,0.0,4.0,60,0.00,,---,0.00,VWS V14.01,2013-08-12 21:10:00,
2013-08-12 17:12:00,82.3,67.0,29.92,NW,309,0.0,1.0,60,0.00,,---,0.00,VWS V14.01,2013-08-12 21:12:00,
2013-08-12 17:17:00,82.1,65.9,29.92,SW,215,0.0,1.0,58,0.00,,---,0.00,VWS V14.01,2013-08-12 21:17:00,
2013-08-12 17:20:00,82.2,66.9,29.92,WSW,249,0.0,1.0,60,0.00,,---,0.00,VWS V14.01,2013-08-12 21:20:00,
2013-08-12 17:22:00,82.2,66.9,29.92,ESE,109,0.0,0.0,60,0.00,,---,0.00,VWS V14.01,2013-08-12 21:22:00,
2013-08-12 17:27:00,82.2,66.5,29.91,WSW,250,0.0,1.0,59,0.00,,---,0.00,VWS V14.01,2013-08-12 21:27:00,
2013-08-12 17:30:00,82.2,66.9,29.91,WSW,250,0.0,1.0,60,0.00,,---,0.00,VWS V14.01,2013-08-12 21:30:00,
2013-08-12 17:32:00,82.1,66.4,29.91,NW,314,0.0,1.0,59,0.00,,---,0.00,VWS V14.01,2013-08-12 21:32:00,
2013-08-12 17:37:00,82.2,66.5,29.91,SW,233,0.0,1.0,59,0.00,,---,0.00,VWS V14.01,2013-08-12 21:37:00,
2013-08-12 17:40:00,82.3,66.6,29.91,WSW,256,0.0,1.0,59,0.00,,---,0.00,VWS V14.01,2013-08-12 21:40:00,
2013-08-12 17:42:00,82.2,66.9,29.91,WSW,256,0.0,0.0,60,0.00,,---,0.00,VWS V14.01,2013-08-12 21:42:00,
2013-08-12 17:47:00,81.9,67.1,29.91,SW,215,0.0,1.0,61,0.00,,---,0.00,VWS V14.01,2013-08-12 21:47:00,
2013-08-12 17:50:00,81.8,66.6,29.91,WSW,246,0.0,1.0,60,0.00,,---,0.00,VWS V14.01,2013-08-12 21:50:00,
2013-08-12 17:52:00,82.1,66.8,29.90,SW,215,0.0,1.0,60,0.00,,---,0.00,VWS V14.01,2013-08-12 21:52:00,
2013-08-12 17:57:00,82.1,67.8,29.91,WSW,250,0.0,1.0,62,0.00,,---,0.00,VWS V14.01,2013-08-12 21:57:00,
2013-08-12 18:00:00,82.0,66.3,29.91,WSW,252,0.0,1.0,59,0.00,,---,0.00,VWS V14.01,2013-08-12 22:00:00,
2013-08-12 18:02:00,82.3,67.0,29.91,SW,222,0.0,1.0,60,0.00,,---,0.00,VWS V14.01,2013-08-12 22:02:00,
2013-08-12 18:07:00,82.3,67.5,29.91,SW,219,0.0,1.0,61,0.00,,---,0.00,VWS V14.01,2013-08-12 22:07:00,
2013-08-12 18:10:00,82.2,66.9,29.91,South,178,0.0,1.0,60,0.00,,---,0.00,VWS V14.01,2013-08-12 22:10:00,
2013-08-12 18:12:00,82.1,67.3,29.91,SSW,206,0.0,0.0,61,0.00,,---,0.00,VWS V14.01,2013-08-12 22:12:00,
2013-08-12 18:17:00,81.7,66.9,29.91,WSW,245,0.0,2.0,61,0.00,,---,0.00,VWS V14.01,2013-08-12 22:17:00,
2013-08-12 18:20:00,81.6,66.9,29.91,WSW,245,0.0,2.0,61,0.00,,---,0.00,VWS V14.01,2013-08-12 22:20:00,
2013-08-12 18:22:00,81.6,67.8,29.90,WSW,242,0.0,0.0,63,0.00,,---,0.00,VWS V14.01,2013-08-12 22:22:00,
2013-08-12 18:27:00,82.0,67.7,29.90,WSW,248,0.0,0.0,62,0.00,,---,0.00,VWS V14.01,2013-08-12 22:27:00,
2013-08-12 18:30:00,82.1,67.3,29.90,WSW,246,0.0,0.0,61,0.00,,---,0.00,VWS V14.01,2013-08-12 22:30:00,
2013-08-12 18:32:00,82.3,67.5,29.90,WSW,240,0.0,0.0,61,0.00,,---,0.00,VWS V14.01,2013-08-12 22:32:00,
2013-08-12 18:37:00,82.2,67.9,29.90,WSW,245,0.0,0.0,62,0.00,,---,0.00,VWS V14.01,2013-08-12 22:37:00,
2013-08-12 18:40:00,82.2,67.9,29.90,WSW,245,0.0,0.0,62,0.00,,---,0.00,VWS V14.01,2013-08-12 22:40:00,
2013-08-12 18:42:00,82.3,67.0,29.89,SW,227,0.0,1.0,60,0.00,,---,0.00,VWS V14.01,2013-08-12 22:42:00,
2013-08-12 18:47:00,82.3,68.5,29.89,SW,232,0.0,1.0,63,0.00,,---,0.00,VWS V14.01,2013-08-12 22:47:00,
2013-08-12 18:50:00,82.2,67.9,29.89,SW,219,0.0,1.0,62,0.00,,---,0.00,VWS V14.01,2013-08-12 22:50:00,
2013-08-12 18:52:00,81.6,67.3,29.89,WSW,242,0.0,0.0,62,0.00,,---,0.00,VWS V14.01,2013-08-12 22:52:00,
2013-08-12 18:58:00,81.4,67.6,29.89,SW,219,0.0,0.0,63,0.00,,---,0.00,VWS V14.01,2013-08-12 22:58:00,
2013-08-12 19:00:00,81.4,68.1,29.89,WSW,248,0.0,0.0,64,0.00,,---,0.00,VWS V14.01,2013-08-12 23:00:00,
2013-08-12 19:03:00,81.5,69.1,29.89,West,265,0.0,0.0,66,0.00,,---,0.00,VWS V14.01,2013-08-12 23:03:00,
2013-08-12 19:08:00,81.1,67.8,29.89,SW,219,0.0,0.0,64,0.00,,---,0.00,VWS V14.01,2013-08-12 23:08:00,
2013-08-12 19:10:00,80.9,67.6,29.89,SW,219,0.0,0.0,64,0.00,,---,0.00,VWS V14.01,2013-08-12 23:10:00,
2013-08-12 19:13:00,80.5,67.7,29.89,SW,232,0.0,0.0,65,0.00,,---,0.00,VWS V14.01,2013-08-12 23:13:00,
2013-08-12 19:18:00,80.3,67.9,29.88,SW,228,0.0,0.0,66,0.00,,---,0.00,VWS V14.01,2013-08-12 23:18:00,
2013-08-12 19:20:00,80.3,67.9,29.88,SW,230,0.0,0.0,66,0.00,,---,0.00,VWS V14.01,2013-08-12 23:20:00,
2013-08-12 19:23:00,80.5,68.1,29.88,SW,230,0.0,0.0,66,0.00,,---,0.00,VWS V14.01,2013-08-12 23:23:00,
2013-08-12 19:28:00,80.3,67.9,29.88,SW,227,0.0,0.0,66,0.00,,---,0.00,VWS V14.01,2013-08-12 23:28:00,
2013-08-12 19:30:00,80.2,67.8,29.88,SW,225,0.0,0.0,66,0.00,,---,0.00,VWS V14.01,2013-08-12 23:30:00,
2013-08-12 19:33:00,79.9,68.8,29.88,SW,227,0.0,0.0,69,0.00,,---,0.00,VWS V14.01,2013-08-12 23:33:00,
2013-08-12 19:38:00,79.6,69.0,29.88,SW,227,0.0,0.0,70,0.00,,---,0.00,VWS V14.01,2013-08-12 23:38:00,
2013-08-12 19:40:00,79.6,69.0,29.88,SW,227,0.0,0.0,70,0.00,,---,0.00,VWS V14.01,2013-08-12 23:40:00,
2013-08-12 19:43:00,79.4,70.4,29.88,SW,227,0.0,0.0,74,0.00,,---,0.00,VWS V14.01,2013-08-12 23:43:00,
2013-08-12 19:48:00,78.7,69.3,29.88,SW,227,0.0,0.0,73,0.00,,---,0.00,VWS V14.01,2013-08-12 23:48:00,
2013-08-12 19:50:00,78.6,69.2,29.88,SW,227,0.0,0.0,73,0.00,,---,0.00,VWS V14.01,2013-08-12 23:50:00,
2013-08-12 19:53:00,78.1,69.1,29.88,SW,227,0.0,0.0,74,0.00,,---,0.00,VWS V14.01,2013-08-12 23:53:00,
2013-08-12 19:58:00,77.7,68.8,29.88,SW,227,0.0,0.0,74,0.00,,---,0.00,VWS V14.01,2013-08-12 23:58:00,
2013-08-12 20:00:00,77.6,68.7,29.88,SW,227,0.0,0.0,74,0.00,,---,0.00,VWS V14.01,2013-08-13 00:00:00,
2013-08-12 20:03:00,77.2,68.7,29.88,SW,227,0.0,0.0,75,0.00,,---,0.00,VWS V14.01,2013-08-13 00:03:00,
2013-08-12 20:08:00,76.9,69.2,29.88,SW,227,0.0,0.0,77,0.00,,---,0.00,VWS V14.01,2013-08-13 00:08:00,
2013-08-12 20:10:00,76.9,69.5,29.88,SW,228,0.0,0.0,78,0.00,,---,0.00,VWS V14.01,2013-08-13 00:10:00,
2013-08-12 20:13:00,76.6,69.6,29.88,SW,228,0.0,0.0,79,0.00,,---,0.00,VWS V14.01,2013-08-13 00:13:00,
2013-08-12 20:18:00,76.3,69.7,29.88,SW,227,0.0,0.0,80,0.00,,---,0.00,VWS V14.01,2013-08-13 00:18:00,
2013-08-12 20:20:00,76.3,69.7,29.88,SW,227,0.0,0.0,80,0.00,,---,0.00,VWS V14.01,2013-08-13 00:20:00,
2013-08-12 20:23:00,76.1,69.8,29.88,SW,227,0.0,0.0,81,0.00,,---,0.00,VWS V14.01,2013-08-13 00:23:00,
2013-08-12 20:28:00,75.8,70.3,29.88,SW,225,0.0,0.0,83,0.00,,---,0.00,VWS V14.01,2013-08-13 00:28:00,
2013-08-12 20:30:00,75.8,70.3,29.88,SW,225,0.0,0.0,83,0.00,,---,0.00,VWS V14.01,2013-08-13 00:30:00,
2013-08-12 20:33:00,75.3,70.1,29.87,SW,222,0.0,0.0,84,0.00,,---,0.00,VWS V14.01,2013-08-13 00:33:00,
2013-08-12 20:38:00,75.1,69.9,29.88,SW,222,0.0,0.0,84,0.00,,---,0.00,VWS V14.01,2013-08-13 00:38:00,
2013-08-12 20:40:00,75.1,69.9,29.88,SW,222,0.0,0.0,84,0.00,,---,0.00,VWS V14.01,2013-08-13 00:40:00,
2013-08-12 20:43:00,75.1,69.9,29.88,SW,227,0.0,0.0,84,0.00,,---,0.00,VWS V14.01,2013-08-13 00:43:00,
2013-08-12 20:48:00,74.9,69.7,29.88,SW,225,0.0,0.0,84,0.00,,---,0.00,VWS V14.01,2013-08-13 00:48:00,
2013-08-12 20:50:00,74.9,69.7,29.88,SW,225,0.0,0.0,84,0.00,,---,0.00,VWS V14.01,2013-08-13 00:50:00,
2013-08-12 20:53:00,74.6,69.8,29.88,WSW,240,0.0,0.0,85,0.00,,---,0.00,VWS V14.01,2013-08-13 00:53:00,
2013-08-12 20:58:00,74.5,69.7,29.88,WSW,245,0.0,0.0,85,0.00,,---,0.00,VWS V14.01,2013-08-13 00:58:00,
2013-08-12 21:00:00,74.5,69.7,29.88,WSW,239,0.0,0.0,85,0.00,,---,0.00,VWS V14.01,2013-08-13 01:00:00,
2013-08-12 21:03:00,74.4,69.3,29.88,SW,236,0.0,0.0,84,0.00,,---,0.00,VWS V14.01,2013-08-13 01:03:00,
2013-08-12 21:08:00,74.4,68.9,29.88,SW,226,0.0,0.0,83,0.00,,---,0.00,VWS V14.01,2013-08-13 01:08:00,
2013-08-12 21:10:00,74.4,68.9,29.88,SW,226,0.0,0.0,83,0.00,,---,0.00,VWS V14.01,2013-08-13 01:10:00,
2013-08-12 21:13:00,74.2,68.4,29.88,SSW,206,0.0,0.0,82,0.00,,---,0.00,VWS V14.01,2013-08-13 01:13:00,
2013-08-12 21:18:00,74.3,68.4,29.88,SSW,203,0.0,0.0,82,0.00,,---,0.00,VWS V14.01,2013-08-13 01:18:00,
2013-08-12 21:20:00,74.3,68.5,29.88,SSW,203,0.0,0.0,82,0.00,,---,0.00,VWS V14.01,2013-08-13 01:20:00,
2013-08-12 21:23:00,74.2,68.4,29.88,SW,226,0.0,0.0,82,0.00,,---,0.00,VWS V14.01,2013-08-13 01:23:00,
2013-08-12 21:28:00,74.2,68.0,29.88,SW,222,0.0,0.0,81,0.00,,---,0.00,VWS V14.01,2013-08-13 01:28:00,
2013-08-12 21:30:00,74.2,68.0,29.88,SW,219,0.0,0.0,81,0.00,,---,0.00,VWS V14.01,2013-08-13 01:30:00,
2013-08-12 21:33:00,74.2,67.6,29.88,SW,214,0.0,0.0,80,0.00,,---,0.00,VWS V14.01,2013-08-13 01:33:00,
2013-08-12 21:38:00,74.2,67.6,29.88,SW,233,0.0,0.0,80,0.00,,---,0.00,VWS V14.01,2013-08-13 01:38:00,
2013-08-12 21:40:00,74.2,67.6,29.88,SW,233,0.0,0.0,80,0.00,,---,0.00,VWS V14.01,2013-08-13 01:40:00,
2013-08-12 21:43:00,74.3,67.7,29.88,SW,221,0.0,0.0,80,0.00,,---,0.00,VWS V14.01,2013-08-13 01:43:00,
2013-08-12 21:48:00,74.3,67.7,29.88,WSW,238,0.0,0.0,80,0.00,,---,0.00,VWS V14.01,2013-08-13 01:48:00,
2013-08-12 21:50:00,74.3,67.7,29.88,WSW,237,0.0,0.0,80,0.00,,---,0.00,VWS V14.01,2013-08-13 01:50:00,
2013-08-12 21:53:00,74.1,68.3,29.88,SW,214,0.0,0.0,82,0.00,,---,0.00,VWS V14.01,2013-08-13 01:53:00,
2013-08-12 21:59:00,73.9,68.1,29.88,SW,215,0.0,0.0,82,0.00,,---,0.00,VWS V14.01,2013-08-13 01:59:00,
2013-08-12 22:00:00,73.9,68.1,29.88,SW,214,0.0,0.0,82,0.00,,---,0.00,VWS V14.01,2013-08-13 02:00:00,
2013-08-12 22:04:00,73.9,68.1,29.88,SW,230,0.0,0.0,82,0.00,,---,0.00,VWS V14.01,2013-08-13 02:04:00,
2013-08-12 22:09:00,73.8,68.0,29.88,SW,230,0.0,0.0,82,0.00,,---,0.00,VWS V14.01,2013-08-13 02:09:00,
2013-08-12 22:10:00,73.8,68.0,29.88,SW,230,0.0,0.0,82,0.00,,---,0.00,VWS V14.01,2013-08-13 02:10:00,
2013-08-12 22:14:00,73.6,67.8,29.88,SW,230,0.0,0.0,82,0.00,,---,0.00,VWS V14.01,2013-08-13 02:14:00,
2013-08-12 22:19:00,73.4,67.9,29.88,SW,230,0.0,0.0,83,0.00,,---,0.00,VWS V14.01,2013-08-13 02:19:00,
2013-08-12 22:20:00,73.4,67.9,29.88,SW,230,0.0,0.0,83,0.00,,---,0.00,VWS V14.01,2013-08-13 02:20:00,
2013-08-12 22:24:00,73.3,68.2,29.88,SW,230,0.0,0.0,84,0.00,,---,0.00,VWS V14.01,2013-08-13 02:24:00,
2013-08-12 22:29:00,73.2,68.1,29.88,SW,230,0.0,0.0,84,0.00,,---,0.00,VWS V14.01,2013-08-13 02:29:00,
2013-08-12 22:30:00,73.3,68.2,29.88,SW,230,0.0,0.0,84,0.00,,---,0.00,VWS V14.01,2013-08-13 02:30:00,
2013-08-12 22:34:00,73.0,68.2,29.87,SW,230,0.0,0.0,85,0.00,,---,0.00,VWS V14.01,2013-08-13 02:34:00,
2013-08-12 22:39:00,72.8,68.4,29.87,SW,230,0.0,0.0,86,0.00,,---,0.00,VWS V14.01,2013-08-13 02:39:00,
2013-08-12 22:40:00,72.8,68.4,29.87,SW,230,0.0,0.0,86,0.00,,---,0.00,VWS V14.01,2013-08-13 02:40:00,
2013-08-12 22:44:00,72.6,68.2,29.86,SW,230,0.0,0.0,86,0.00,,---,0.00,VWS V14.01,2013-08-13 02:44:00,
2013-08-12 22:49:00,72.4,68.3,29.86,SW,230,0.0,0.0,87,0.00,,---,0.00,VWS V14.01,2013-08-13 02:49:00,
2013-08-12 22:50:00,72.4,68.3,29.86,SW,230,0.0,0.0,87,0.00,,---,0.00,VWS V14.01,2013-08-13 02:50:00,
2013-08-12 22:54:00,72.1,67.7,29.86,SSE,157,0.0,0.0,86,0.00,,---,0.00,VWS V14.01,2013-08-13 02:54:00,
2013-08-12 22:59:00,72.0,67.9,29.85,SSE,161,0.0,0.0,87,0.00,,---,0.00,VWS V14.01,2013-08-13 02:59:00,
2013-08-12 23:00:00,72.0,67.9,29.85,SSE,161,0.0,0.0,87,0.00,,---,0.00,VWS V14.01,2013-08-13 03:00:00,
2013-08-12 23:04:00,71.8,67.7,29.85,SW,219,0.0,0.0,87,0.00,,---,0.00,VWS V14.01,2013-08-13 03:04:00,
2013-08-12 23:09:00,71.9,67.5,29.85,SW,219,0.0,0.0,86,0.00,,---,0.00,VWS V14.01,2013-08-13 03:09:00,
2013-08-12 23:10:00,71.8,67.4,29.85,SW,219,0.0,0.0,86,0.00,,---,0.00,VWS V14.01,2013-08-13 03:10:00,
2013-08-12 23:14:00,72.0,67.6,29.85,SW,222,0.0,0.0,86,0.00,,---,0.00,VWS V14.01,2013-08-13 03:14:00,
2013-08-12 23:19:00,72.0,67.6,29.85,SW,223,0.0,0.0,86,0.00,,---,0.00,VWS V14.01,2013-08-13 03:19:00,
2013-08-12 23:20:00,72.0,67.2,29.85,SW,215,0.0,0.0,85,0.00,,---,0.00,VWS V14.01,2013-08-13 03:20:00,
2013-08-12 23:24:00,71.9,67.2,29.85,SW,219,0.0,0.0,85,0.00,,---,0.00,VWS V14.01,2013-08-13 03:24:00,
2013-08-12 23:29:00,72.0,67.2,29.85,SW,235,0.0,0.0,85,0.00,,---,0.00,VWS V14.01,2013-08-13 03:29:00,
2013-08-12 23:30:00,72.0,67.2,29.85,SW,221,0.0,0.0,85,0.00,,---,0.00,VWS V14.01,2013-08-13 03:30:00,
2013-08-12 23:34:00,72.2,67.1,29.85,SW,234,0.0,0.0,84,0.00,,---,0.00,VWS V14.01,2013-08-13 03:34:00,
2013-08-12 23:39:00,72.2,67.1,29.84,SW,233,0.0,0.0,84,0.00,,---,0.00,VWS V14.01,2013-08-13 03:39:00,
2013-08-12 23:40:00,72.2,67.1,29.84,SW,233,0.0,0.0,84,0.00,,---,0.00,VWS V14.01,2013-08-13 03:40:00,
2013-08-12 23:44:00,72.2,67.8,29.84,SW,233,0.0,0.0,86,0.00,,---,0.00,VWS V14.01,2013-08-13 03:44:00,
2013-08-12 23:50:00,72.0,67.6,29.84,SW,233,0.0,0.0,86,0.00,,---,0.00,VWS V14.01,2013-08-13 03:50:00,
2013-08-12 23:53:00,71.8,67.4,29.84,SW,232,0.0,0.0,86,0.00,,---,0.00,VWS V14.01,2013-08-13 03:53:00,
2013-08-12 23:58:00,71.6,67.5,29.84,SW,233,0.0,0.0,87,0.00,,---,0.00,VWS V14.01,2013-08-13 03:58:00,